User: anonymous   Login
Location: Ammerl�gen
(47.2167°N, 9.6000°E)
Time: 04:33:13
(UTC+00:00)
Language:

DMSP 5D-2 F13 DEB - Orbit

View from above orbital plane
View from above orbital plane
View from above satellite
View from above satellite

Ground track
Ground track

The orbit data is extracted from the following two-line orbital elements,

1 40674U 95015FN  21287.56060028  .00004824  00000-0  16587-2 0  9995
2 40674  98.7249 329.7373 0021372 136.5691 223.7183 14.36361212335211
Epoch (UTC): 14 October 2021 13:27:15
Eccentricity: 0.0021372
inclination: 98.7249°
perigee height: 755 km
apogee height: 786 km
right ascension of ascending node: 329.7373°
argument of perigee: 136.5691°
revolutions per day: 14.36361212
mean anomaly at epoch: 223.7183°
orbit number at epoch: 33521

The dashed part of the orbit path shows where the satellite is in the earth's shadow,  

DLR